Location: Arboyeti
(42.1122°N, 44.6017°E)
Time: 19:06:38
(UTC+00:00)

N. Korean satellite - Visible Passes

Search period start: 26 September 2021 00:00
Search period end: 06 October 2021 00:00
Orbit: 449 x 498 km, 97.3° (Epoch: 26 September)

Date Brightness Start Highest point End Pass type
(mag) Time Alt. Az. Time Alt. Az. Time Alt. Az.
26 Sep 9.5 01:31:53 10° NE 01:34:31 19° E 01:37:10 10° SE visible
28 Sep 7.3 02:08:43 10° NNE 02:12:15 59° E 02:15:49 10° S visible
29 Sep 9.0 01:41:19 10° NE 01:44:22 25° E 01:47:25 10° SSE visible
30 Sep 10.0 01:14:55 10° ENE 01:16:21 12° E 01:17:47 10° ESE visible
01 Oct 6.7 02:18:22 10° NNE 02:21:59 81° ESE 02:25:37 10° S visible
02 Oct 8.5 01:50:46 10° NNE 01:54:05 34° E 01:57:25 10° SSE visible
03 Oct 9.8 01:23:47 10° NE 01:26:04 16° E 01:28:21 10° SE visible
04 Oct 6.5 02:27:58 10° N 02:31:35 75° WNW 02:35:13 10° SSW visible
05 Oct 7.8 02:00:12 10° NNE 02:03:42 45° E 02:07:12 10° S visible
